TUBIN
1 48900U 21059X   25228.63944280  .00044937  00000-0  43351-3 0  9999
2 48900  97.6779  43.7048 0002264 339.3673  20.7494 15.66373633230679
LEDSAT
1 49069U 21073D   25228.70769499  .00104428  00000-0  81577-3 0  9991
2 49069  97.3825 313.5517 0008671 187.3997 172.7139 15.71284166222091
CUTE
1 49263U 21088D   25228.47582294  .00013240  00000-0  23890-3 0  9998
2 49263  97.4470 306.8250 0006037   0.2468 359.8785 15.49863437214931
TeikyoSat 4
1 49396U 21102B   25228.50926552  .00002034  00000-0  13641-3 0  9997
2 49396  97.4064 264.4804 0010838 258.8652 101.1359 15.07889612206787
Z-Sat
1 49399U 21102E   25228.73048018  .00003712  00000-0  20218-3 0  9999
2 49399  97.3760 268.2201 0016799 223.4094 136.5816 15.14901706207299
KOSEN 1
1 49402U 21102H   25228.31580652  .00005206  00000-0  23667-3 0  9994
2 49402  97.3660 271.7562 0015309 195.5998 164.4768 15.21073516207585
HO-113
1 50466U 21131B   25228.74627481  .00000467  00000-0  15934-3 0  9999
2 50466  98.5095 317.7659 0003013 298.3555  61.7329 14.40881871191260
SNUGLITE 2
1 52899U 22065F   25228.39182251  .00001028  00000-0  20814-3 0  9997
2 52899  98.1776   9.7427 0006356 258.6512 101.3976 14.63350122166402
UmKA 1 (RS40S)
1 57172U 23091G   25228.73880052  .00004574  00000-0  24083-3 0  9999
2 57172  97.5529 283.7753 0015825  98.9848 261.3177 15.16021778117805
CubeBel-2 (EU11S)
1 57175U 23091K   25228.77899381  .00009043  00000-0  41693-3 0  9993
2 57175  97.5527 285.3962 0013423 104.8486 255.4236 15.20412629117919
ENSO
1 58470U 23185J   25228.78556067  .00070549  00000-0  75116-3 0  9994
2 58470  97.3671 306.4344 0007008 187.4180 172.6976 15.63747962 95661
EIRSAT-1
1 58472U 23185L   25228.76501928  .00359649  50252-4  11745-2 0  9996
2 58472  97.3561 310.0335 0007461 224.3568 135.7109 15.90579178 95903
SONATE-2
1 59112U 24043Q   25228.34606651  .00015193  00000-0  41101-3 0  9990
2 59112  97.5212   1.0083 0009961 228.2586 131.7807 15.37754075 80746
MO-122
1 60209U 24125G   25228.34180212  .00015927  00000-0  42246-3 0  9996
2 60209  97.2732  79.2769 0016218 251.1617 108.7870 15.38259569 62361
GRBBeta
1 60237U 24128C   25228.26849543  .00004210  00000-0  31543-3 0  9991
2 60237  61.9901 203.4592 0056005  71.9561 288.7621 15.03121439 60375
Curium One
1 60242U 24128H   25228.25227488  .00007337  00000-0  49829-3 0  9993
2 60242  61.9798 200.7561 0055989  68.4242 292.2803 15.05954578 60426
ROBUSTA-3A
1 60243U 24128J   25228.34297292  .00006322  00000-0  43799-3 0  9997
2 60243  61.9870 201.4989 0055289  66.0673 294.6196 15.05433041 60423
CatSat
1 60246U 24125J   25228.53378280  .00015646  00000-0  49692-3 0  9992
2 60246  97.2542  77.8811 0040397 209.8150 150.0790 15.31920337 60382
HYPERVIEW-1G (RS66S)
1 61772U 24199AP  25228.78898306  .00018573  00000-0  49703-3 0  9996
2 61772  97.3435  97.5869 0011000 313.3216  46.7111 15.38029106 87438
AO-123
1 61781U 24199AY  25228.78447820  .00005740  00000-0  20490-3 0  9991
2 61781  97.3456  95.6683 0014236 321.3279  38.6941 15.29166031 87302
ZIMSAT 2
1 61783U 24199BA  25228.76289466  .00036164  00000-0  75408-3 0  9994
2 61783  97.3400  98.7866 0009563 306.7770  53.2600 15.45431347 90661
HADES-R (SO-124)
1 62690U 25009CK  25228.18226206  .00036291  00000-0  11156-2 0  9992
2 62690  97.4054 308.9132 0003504 196.2571 163.8560 15.33596654 32497
HYDRA-T
1 62692U 25009CM  25228.15403774  .00038657  00000-0  11735-2 0  9999
2 62692  97.4066 308.9508 0003399 192.7005 167.4152 15.33982319 32498
JINJUSat 1B
1 63210U 25052A   25228.21408453  .00009304  00000-0  41069-3 0  9991
2 63210  97.4315 121.5077 0006363  89.0171 271.1794 15.21956164 23534
NUSHSAT 1
1 63211U 25052B   25228.26158098  .00011172  00000-0  48695-3 0  9992
2 63211  97.4306 121.5767 0006416  92.6256 267.5715 15.22335911 23549
TEVEL2-4
1 63213U 25052D   25228.42112162  .00009624  00000-0  42445-3 0  9990
2 63213  97.4225 121.5037 0005590 103.4427 256.7432 15.21977164 23563
TEVEL2-5
1 63214U 25052E   25228.68577974  .00009566  00000-0  42224-3 0  9995
2 63214  97.4220 121.7615 0005537 102.5833 257.6022 15.21951585 23604
TEVEL2-6
1 63215U 25052F   25228.42671215  .00009624  00000-0  42532-3 0  9998
2 63215  97.4227 121.4991 0005600 103.8915 256.2945 15.21906993 23569
TEVEL2-1
1 63217U 25052H   25228.25059496  .00010385  00000-0  46194-3 0  9996
2 63217  97.4198 121.2265 0005556 113.2912 246.8909 15.21664408 23536
TEVEL2-3
1 63218U 25052J   25228.25079043  .00010456  00000-0  46499-3 0  9994
2 63218  97.4201 121.2280 0005581 113.8517 246.3304 15.21669092 23532
TEVEL2-2
1 63219U 25052K   25228.25122597  .00010495  00000-0  46688-3 0  9991
2 63219  97.4200 121.2269 0005547 113.9440 246.2377 15.21659572 23538
TEVEL2-9
1 63237U 25052AD  25228.43711844  .00009285  00000-0  42857-3 0  9999
2 63237  97.4266 121.2611 0009618 129.4607 230.7481 15.20397156 23542
TEVEL2-7
1 63238U 25052AE  25228.63993594  .00009377  00000-0  43372-3 0  9991
2 63238  97.4268 121.4519 0009704 128.8225 231.3878 15.20323837 23574
TEVEL2-8
1 63239U 25052AF  25228.44589329  .00009423  00000-0  43626-3 0  9992
2 63239  97.4265 121.2510 0009676 129.7994 230.4094 15.20287896 23543
HYDRA-W
1 63490U 25052BL  25228.20778527  .00023699  00000-0  90827-3 0  9991
2 63490  97.4208 121.7657 0013477 127.6960 232.5503 15.26432769 23567
HADES-ICM (SO-125)
1 63492U 25052BN  25228.44249523  .00021902  00000-0  85557-3 0  9997
2 63492  97.4230 121.9229 0013769 129.9433 230.3017 15.25809732 23591
